Location: Newark
(43.8369°N, 4.3600°E)
Time: 08:27:02
(UTC+00:00)

Envisat - Visible Passes

Search period start: 15 December 2019 00:00
Search period end: 25 December 2019 00:00
Orbit: 764 x 766 km, 98.1° (Epoch: 15 December)

Date Brightness Start Highest point End Pass type
(mag) Time Alt. Az. Time Alt. Az. Time Alt. Az.
15 Dec 6.4 05:00:35 10° E 05:01:08 10° E 05:01:41 10° E visible
15 Dec 3.1 06:35:47 10° NNE 06:40:54 86° ESE 06:45:58 10° SSW visible
15 Dec 3.4 17:51:37 10° S 17:56:40 65° WSW 18:01:44 10° NNW visible
16 Dec 4.6 05:59:16 10° NNE 06:04:02 39° E 06:08:46 10° SSE visible
16 Dec 3.0 17:14:57 10° SSE 17:19:55 59° ENE 17:24:55 10° N visible
16 Dec 5.7 18:55:59 10° SW 18:59:20 18° W 19:02:42 10° NW visible
17 Dec 5.9 05:23:27 10° NE 05:26:58 19° E 05:30:27 10° SE visible
17 Dec 3.8 16:39:04 10° SE 16:43:22 29° ENE 16:47:41 10° N visible
17 Dec 4.5 18:17:34 10° SSW 18:22:15 37° W 18:26:58 10° NNW visible
18 Dec 3.4 06:24:31 10° NNE 06:29:37 69° ESE 06:34:40 10° S visible
18 Dec 3.1 17:40:17 10° S 17:45:22 82° WSW 17:50:29 10° NNW visible
19 Dec 5.0 05:48:10 10° NNE 05:52:41 31° E 05:57:10 10° SSE visible
19 Dec 3.2 17:03:50 10° SE 17:08:40 47° ENE 17:13:33 10° N visible
19 Dec 5.4 18:44:03 10° SW 18:47:56 22° W 18:51:52 10° NW visible
20 Dec 6.0 05:12:46 10° NE 05:15:33 15° E 05:18:20 10° ESE visible
20 Dec 4.0 18:06:02 10° S 18:10:55 47° W 18:15:50 10° NNW visible
21 Dec 3.9 06:13:18 10° NNE 06:18:18 54° E 06:23:16 10° S visible
21 Dec 2.9 17:29:01 10° SSE 17:34:05 81° ENE 17:39:11 10° N visible
21 Dec 6.1 19:11:35 10° WSW 19:13:43 13° W 19:15:52 10° WNW visible
22 Dec 5.4 05:37:08 10° NE 05:41:19 25° E 05:45:28 10° SSE visible
22 Dec 3.5 16:52:48 10° SE 16:57:27 38° ENE 17:02:08 10° N visible
22 Dec 5.0 18:32:16 10° SSW 18:36:34 27° W 18:40:53 10° NW visible
23 Dec 6.3 05:02:32 10° ENE 05:04:07 11° E 05:05:42 10° ESE visible
23 Dec 3.0 06:38:42 10° NNE 06:43:50 88° W 06:48:54 10° SSW visible
23 Dec 3.6 17:54:35 10° S 17:59:35 59° W 18:04:38 10° NNW visible
24 Dec 4.4 06:02:08 10° NNE 06:06:59 43° E 06:11:47 10° S visible
24 Dec 2.9 17:17:49 10° SSE 17:22:50 65° ENE 17:27:52 10° N visible
24 Dec 5.8 18:59:13 10° SW 19:02:18 16° W 19:05:24 10° NW visible
